Regional Weather Roundup
Issued by NWS Newport/Morehead, NC

Current Version | Previous Version | Graphics & Text | Print | Product List | Glossary On
Versions: 1 2 3 4 5 6 7 8 9 10 11 12 13 14 15 16 17 18 19 20 21 22 23 24 25 26 27 28 29 30 31 32 33 34 35 36 37 38 39 40 41 42 43 44 45 46 47 48 49 50
000 ASUS42 KMHX 261026 RWRMHX WEATHER ROUNDUP FOR EASTERN NORTH CAROLINA NATIONAL WEATHER SERVICE NEWPORT/MOREHEAD CITY NC 600 AM EDT FRI MAY 26 2017 NOTE: "FAIR" INDICATES FEW OR NO CLOUDS BELOW 12,000 FEET WITH NO SIGNIFICANT WEATHER AND/OR OBSTRUCTIONS TO VISIBILITY NCZ015>017-031-032-045>047-102-103-261100- NORTH COAST CITY SKY/WX TMP DP RH WIND PRES REMARKS EDENTON CLEAR 67 56 68 W15G22 29.80R ELIZABETH CITY CLEAR 64 56 75 SW15G23 29.77R KITTY HAWK SUNNY 66 55 66 W14G23 29.77R MANTEO CLEAR 65 56 71 W17G24 29.79R $$ NCZ045>047-081-094-103-104-261100- CENTRAL COAST CITY SKY/WX TMP DP RH WIND PRES REMARKS FRISCO CLEAR 70 57 63 W16G24 29.83R $$ NCZ095-097-098-100-101-261100- SOUTHERN COAST CITY SKY/WX TMP DP RH WIND PRES REMARKS BEAUFORT CLEAR 67 55 65 W14 29.87R CEDAR ISLAND NOT AVBL JACKSONVILLE CLEAR 62 55 77 SW10 29.88R PINEY ISLAND SUNNY N/A N/A N/A W18G28 29.86R WILMINGTON CLEAR 63 54 72 W9 29.90R $$ NCZ011>013-027>030-043-044-078>080-089-090>093-098-261100- COASTAL PLAIN CITY SKY/WX TMP DP RH WIND PRES REMARKS AHOSKIE N/A 60 54 83 CALM 29.80R CLINTON CLEAR 60 55 86 CALM 29.89R ELIZABETHTOWN CLEAR 61 54 76 SW6 29.91R GOLDSBORO CLEAR 61 58 91 W10 29.84R GREENVILLE CLEAR 63 54 72 W8 29.86R HAVELOCK CLEAR 65 53 65 W13 29.88R KENANSVILLE CLEAR 61 54 77 SW10 29.88R KINSTON CLEAR 61 55 79 CALM 29.87R NEW BERN CLEAR 63 55 75 W9G18 29.87R RICHLANDS CLEAR 59 55 87 SW6 29.89R ROCKY MOUNT CLEAR 61 55 81 SW9 29.83R WASHINGTON CLEAR 62 54 76 SW8 29.83R WHITEVILLE CLEAR 62 53 73 W3 29.91R $$ AMZ130-135-150-152-154-156-158-170-250-252-270-ANZ085-086-088-633-658-670-261100- MARINE OBSERVATIONS STATION/POSITION TIME TEMP WIND PRES WAVE SWELL AIR SEA DIR/SP/G HT/PER HT/PER (UTC) (F) (DEG/KT/KT) (MB) (FT/S) (FT/S) CHESAPEAKE LIGHT NOT AVBL 64 E VA BEACH 0950 64 62 250/ 17/ 21 1007.0 6/ 8 3/ 8 DUCK 1000 68 62 250/ 20/ 26 1007.6 2 E DUCK 1000 62 N/A 2/ 8 OREGON INLET 1000 67 70 250/ 19/ 24 1008.3 13E OREGON INLT 0948 65 N/A 5/ 8 3/ 8 HATTERAS CG 1000 70 73 260/ 19/ 25 1009.9 DIAMOND BUOY 0950 72 78 270/ 25/ 31 1009.6 9/ 8 CAPE LOOKOUT 1000 69 280/ 21/ 25 1011.1 BEAUFORT LAB 1000 68 69 270/ 5/ 14 1010.9 30 SE NEW RVR IN 1008 71 76 280/ 21/ 27 1011.8 30 SE NEW RVR IN 1013 76 N/A 8/ 8 27 SE WRIGHTSVLE 1008 71 75 260/ 19/ 27 1011.4 5 SE WRIGHTSVLE 1008 68 73 270/ 16/ 25 1012.4 225 S CAPE HAT 0950 77 76 270/ 17/ 21 1014.1 9/ 8 5/ 9 41 SE CHARLESTON 1010 73 74 290/ 16/ 19 1014.3 $$

USA.gov is the U.S. government's official web portal to all federal, state and local government web resources and services.